Time,TemperatureF,DewpointF,PressureIn,WindDirection,WindDirectionDegrees,WindSpeedMPH,WindSpeedGustMPH,Humidity,HourlyPrecipIn,Conditions,Clouds,dailyrainin,SoftwareType,DateUTC
2013-03-04 00:01:00,27.0,16.0,-100.00,SE,125,9.0,14.0,61,0.00,,,0.00,,2013-03-04 06:01:00,
2013-03-04 00:11:00,27.0,16.0,-100.00,ESE,120,10.0,12.0,61,0.00,,,0.00,,2013-03-04 06:11:00,
2013-03-04 00:21:00,27.0,16.0,-100.00,SE,130,7.0,12.0,61,0.00,,,0.00,,2013-03-04 06:21:00,
2013-03-04 00:32:00,27.0,16.0,-100.00,ESE,120,7.0,13.0,61,0.00,,,0.00,,2013-03-04 06:32:00,
2013-03-04 00:42:00,27.0,16.0,-100.00,ESE,120,9.0,12.0,63,0.00,,,0.00,,2013-03-04 06:42:00,
2013-03-04 00:51:00,27.0,16.0,-100.00,SE,130,10.0,13.0,63,0.00,,,0.00,,2013-03-04 06:51:00,
2013-03-04 01:01:00,27.0,16.0,-100.00,SE,130,8.0,11.0,63,0.00,,,0.00,,2013-03-04 07:01:00,
2013-03-04 01:11:00,27.0,16.0,-100.00,SE,130,7.0,11.0,64,0.00,,,0.00,,2013-03-04 07:11:00,
2013-03-04 01:21:00,27.0,16.0,-100.00,SE,130,9.0,11.0,64,0.00,,,0.00,,2013-03-04 07:21:00,
2013-03-04 01:32:00,27.0,16.0,-100.00,SE,125,9.0,13.0,64,0.00,,,0.00,,2013-03-04 07:32:00,
2013-03-04 01:41:00,27.0,16.0,-100.00,SE,135,11.0,20.0,62,0.00,,,0.00,,2013-03-04 07:41:00,
2013-03-04 01:51:00,27.0,16.0,-100.00,SE,130,17.0,22.0,62,0.00,,,0.00,,2013-03-04 07:51:00,
2013-03-04 02:02:00,26.0,16.0,-100.00,ESE,120,17.0,24.0,64,0.00,,,0.00,,2013-03-04 08:02:00,
2013-03-04 02:11:00,26.0,16.0,-100.00,SE,135,14.0,23.0,65,0.00,,,0.00,,2013-03-04 08:11:00,
2013-03-04 02:21:00,26.0,16.0,-100.00,SE,130,13.0,22.0,66,0.00,,,0.00,,2013-03-04 08:21:00,
2013-03-04 02:32:00,26.0,18.0,-100.00,SE,130,16.0,21.0,66,0.00,,,0.00,,2013-03-04 08:32:00,
2013-03-04 02:41:00,26.0,18.0,-100.00,SE,125,12.0,21.0,68,0.00,,,0.00,,2013-03-04 08:41:00,
2013-03-04 02:52:00,26.0,18.0,-100.00,ESE,120,16.0,20.0,70,0.00,,,0.00,,2013-03-04 08:52:00,
2013-03-04 03:01:00,26.0,18.0,-100.00,ESE,110,14.0,20.0,72,0.00,,,0.00,,2013-03-04 09:01:00,
2013-03-04 03:11:00,26.0,18.0,-100.00,ESE,110,12.0,19.0,71,0.00,,,0.00,,2013-03-04 09:11:00,
2013-03-04 03:21:00,26.0,18.0,-100.00,ESE,110,13.0,20.0,70,0.00,,,0.00,,2013-03-04 09:21:00,
2013-03-04 03:32:00,27.0,18.0,-100.00,ESE,110,16.0,20.0,67,0.00,,,0.00,,2013-03-04 09:32:00,
2013-03-04 03:42:00,27.0,18.0,-100.00,ESE,110,15.0,22.0,66,0.00,,,0.00,,2013-03-04 09:42:00,
2013-03-04 03:51:00,26.0,18.0,-100.00,ESE,105,18.0,24.0,67,0.00,,,0.00,,2013-03-04 09:51:00,
2013-03-04 04:01:00,26.0,18.0,-100.00,ESE,105,16.0,22.0,68,0.00,,,0.00,,2013-03-04 10:01:00,
2013-03-04 04:11:00,26.0,18.0,-100.00,ESE,105,15.0,23.0,71,0.00,,,0.00,,2013-03-04 10:11:00,
2013-03-04 04:21:00,25.0,19.0,-100.00,ESE,110,17.0,23.0,75,0.00,,,0.00,,2013-03-04 10:21:00,
2013-03-04 04:32:00,25.0,19.0,-100.00,ESE,115,17.0,23.0,80,0.00,,,0.00,,2013-03-04 10:32:00,
2013-03-04 04:42:00,24.0,21.0,-100.00,ESE,105,13.0,21.0,85,0.00,,,0.00,,2013-03-04 10:42:00,
2013-03-04 04:52:00,24.0,21.0,-100.00,East,100,14.0,17.0,88,0.00,,,0.00,,2013-03-04 10:52:00,
2013-03-04 05:01:00,24.0,21.0,-100.00,ESE,105,14.0,18.0,90,0.00,,,0.00,,2013-03-04 11:01:00,
2013-03-04 05:11:00,24.0,21.0,-100.00,ESE,105,13.0,17.0,91,0.00,,,0.00,,2013-03-04 11:11:00,
2013-03-04 05:21:00,24.0,23.0,-100.00,ESE,110,13.0,19.0,93,0.00,,,0.00,,2013-03-04 11:21:00,
2013-03-04 05:32:00,24.0,23.0,-100.00,ESE,105,14.0,20.0,95,0.00,,,0.00,,2013-03-04 11:32:00,
2013-03-04 05:42:00,23.0,23.0,-100.00,ESE,110,12.0,17.0,97,0.00,,,0.00,,2013-03-04 11:42:00,
2013-03-04 05:52:00,23.0,23.0,-100.00,ESE,105,13.0,18.0,98,0.00,,,0.00,,2013-03-04 11:52:00,
2013-03-04 06:01:00,23.0,23.0,-100.00,ESE,105,14.0,18.0,99,0.00,,,0.00,,2013-03-04 12:01:00,
2013-03-04 06:11:00,23.0,23.0,-100.00,East,100,13.0,19.0,99,0.00,,,0.00,,2013-03-04 12:11:00,
2013-03-04 06:22:00,23.0,23.0,-100.00,East,90,13.0,17.0,99,0.00,,,0.00,,2013-03-04 12:22:00,
2013-03-04 06:32:00,23.0,23.0,-100.00,East,95,15.0,19.0,99,0.00,,,0.00,,2013-03-04 12:32:00,
2013-03-04 06:42:00,23.0,23.0,-100.00,East,100,14.0,20.0,99,0.00,,,0.00,,2013-03-04 12:42:00,
2013-03-04 07:51:00,23.0,23.0,-100.00,East,100,17.0,21.0,99,0.00,,,0.00,,2013-03-04 13:51:00,
2013-03-04 08:01:00,23.0,23.0,-100.00,East,95,16.0,22.0,99,0.00,,,0.00,,2013-03-04 14:01:00,
2013-03-04 08:11:00,23.0,23.0,-100.00,East,95,15.0,20.0,99,0.00,,,0.00,,2013-03-04 14:11:00,
2013-03-04 08:22:00,23.0,23.0,-100.00,ESE,105,14.0,19.0,99,0.00,,,0.00,,2013-03-04 14:22:00,
2013-03-04 08:32:00,23.0,23.0,-100.00,East,90,13.0,19.0,99,0.00,,,0.00,,2013-03-04 14:32:00,
2013-03-04 08:42:00,23.0,23.0,-100.00,East,100,15.0,20.0,99,0.00,,,0.00,,2013-03-04 14:42:00,
2013-03-04 08:52:00,23.0,23.0,-100.00,East,100,15.0,21.0,99,0.00,,,0.00,,2013-03-04 14:52:00,
2013-03-04 09:01:00,23.0,23.0,-100.00,East,100,14.0,20.0,99,0.00,,,0.00,,2013-03-04 15:01:00,
2013-03-04 09:11:00,23.0,23.0,-100.00,East,95,17.0,22.0,99,0.00,,,0.00,,2013-03-04 15:11:00,
2013-03-04 09:21:00,24.0,23.0,-100.00,ESE,105,16.0,24.0,99,0.00,,,0.00,,2013-03-04 15:21:00,
2013-03-04 09:32:00,24.0,23.0,-100.00,ESE,105,16.0,22.0,98,0.00,,,0.00,,2013-03-04 15:32:00,
2013-03-04 09:42:00,24.0,23.0,-100.00,ESE,105,18.0,22.0,97,0.00,,,0.00,,2013-03-04 15:42:00,
2013-03-04 09:52:00,24.0,23.0,-100.00,East,100,17.0,25.0,96,0.00,,,0.00,,2013-03-04 15:52:00,
2013-03-04 10:02:00,24.0,23.0,-100.00,ESE,105,17.0,23.0,96,0.00,,,0.00,,2013-03-04 16:02:00,
2013-03-04 10:11:00,24.0,23.0,-100.00,ESE,105,20.0,23.0,95,0.00,,,0.00,,2013-03-04 16:11:00,
2013-03-04 10:21:00,24.0,23.0,-100.00,East,100,15.0,23.0,95,0.00,,,0.00,,2013-03-04 16:21:00,
2013-03-04 10:32:00,24.0,23.0,-100.00,East,100,18.0,23.0,95,0.00,,,0.00,,2013-03-04 16:32:00,
2013-03-04 10:42:00,24.0,23.0,-100.00,East,100,18.0,23.0,96,0.00,,,0.00,,2013-03-04 16:42:00,
2013-03-04 10:52:00,24.0,23.0,-100.00,East,100,16.0,24.0,96,0.00,,,0.00,,2013-03-04 16:52:00,
2013-03-04 11:02:00,25.0,23.0,-100.00,ESE,105,16.0,24.0,95,0.00,,,0.00,,2013-03-04 17:02:00,
2013-03-04 11:11:00,24.0,23.0,-100.00,ESE,105,20.0,24.0,95,0.00,,,0.00,,2013-03-04 17:11:00,
2013-03-04 11:22:00,25.0,23.0,-100.00,ESE,105,18.0,23.0,94,0.00,,,0.00,,2013-03-04 17:22:00,
2013-03-04 11:32:00,25.0,23.0,-100.00,ESE,105,16.0,22.0,94,0.00,,,0.00,,2013-03-04 17:32:00,
2013-03-04 11:42:00,25.0,23.0,-100.00,East,100,17.0,27.0,94,0.00,,,0.00,,2013-03-04 17:42:00,
2013-03-04 11:52:00,25.0,23.0,-100.00,East,95,18.0,25.0,93,0.00,,,0.00,,2013-03-04 17:52:00,
2013-03-04 12:01:00,25.0,23.0,-100.00,ESE,105,20.0,24.0,92,0.00,,,0.00,,2013-03-04 18:01:00,
2013-03-04 12:11:00,25.0,23.0,-100.00,ESE,105,15.0,24.0,92,0.00,,,0.00,,2013-03-04 18:11:00,
2013-03-04 12:21:00,25.0,23.0,-100.00,ESE,110,14.0,21.0,92,0.00,,,0.00,,2013-03-04 18:21:00,
2013-03-04 12:32:00,25.0,23.0,-100.00,ESE,120,15.0,21.0,91,0.00,,,0.00,,2013-03-04 18:32:00,
2013-03-04 12:42:00,25.0,23.0,-100.00,ESE,115,14.0,24.0,91,0.00,,,0.00,,2013-03-04 18:42:00,
2013-03-04 12:52:00,25.0,23.0,-100.00,ESE,115,17.0,22.0,91,0.00,,,0.00,,2013-03-04 18:52:00,
2013-03-04 13:02:00,25.0,23.0,-100.00,ESE,115,16.0,20.0,90,0.00,,,0.00,,2013-03-04 19:02:00,
2013-03-04 13:11:00,25.0,23.0,-100.00,ESE,110,16.0,20.0,90,0.00,,,0.00,,2013-03-04 19:11:00,
2013-03-04 13:21:00,25.0,23.0,-100.00,ESE,105,17.0,21.0,88,0.00,,,0.00,,2013-03-04 19:21:00,
2013-03-04 13:32:00,25.0,21.0,-100.00,ESE,110,15.0,18.0,87,0.00,,,0.00,,2013-03-04 19:32:00,
2013-03-04 13:42:00,25.0,21.0,-100.00,ESE,115,14.0,19.0,85,0.00,,,0.00,,2013-03-04 19:42:00,
2013-03-04 13:51:00,26.0,21.0,-100.00,ESE,120,13.0,22.0,84,0.00,,,0.00,,2013-03-04 19:51:00,
2013-03-04 14:01:00,26.0,21.0,-100.00,ESE,120,16.0,21.0,81,0.00,,,0.00,,2013-03-04 20:01:00,
2013-03-04 14:11:00,26.0,21.0,-100.00,ESE,120,11.0,21.0,81,0.00,,,0.00,,2013-03-04 20:11:00,
2013-03-04 14:22:00,26.0,21.0,-100.00,ESE,120,12.0,17.0,80,0.00,,,0.00,,2013-03-04 20:22:00,
2013-03-04 14:32:00,26.0,19.0,-100.00,ESE,115,14.0,21.0,78,0.00,,,0.00,,2013-03-04 20:32:00,
2013-03-04 14:42:00,26.0,19.0,-100.00,ESE,115,10.0,16.0,77,0.00,,,0.00,,2013-03-04 20:42:00,
2013-03-04 14:52:00,26.0,19.0,-100.00,ESE,120,12.0,17.0,75,0.00,,,0.00,,2013-03-04 20:52:00,
2013-03-04 15:02:00,26.0,19.0,-100.00,ESE,110,15.0,21.0,74,0.00,,,0.00,,2013-03-04 21:02:00,
2013-03-04 15:11:00,26.0,19.0,-100.00,ESE,110,16.0,20.0,73,0.00,,,0.00,,2013-03-04 21:11:00,
2013-03-04 15:21:00,26.0,18.0,-100.00,East,100,11.0,19.0,72,0.00,,,0.00,,2013-03-04 21:21:00,
2013-03-04 15:32:00,26.0,18.0,-100.00,ESE,120,11.0,17.0,72,0.00,,,0.00,,2013-03-04 21:32:00,
2013-03-04 15:42:00,26.0,18.0,-100.00,ESE,110,10.0,13.0,71,0.00,,,0.00,,2013-03-04 21:42:00,
2013-03-04 15:52:00,26.0,18.0,-100.00,ESE,110,12.0,16.0,70,0.00,,,0.00,,2013-03-04 21:52:00,
2013-03-04 16:01:00,26.0,18.0,-100.00,ESE,110,12.0,16.0,69,0.00,,,0.00,,2013-03-04 22:01:00,
2013-03-04 16:12:00,26.0,18.0,-100.00,ESE,105,12.0,17.0,69,0.00,,,0.00,,2013-03-04 22:12:00,
2013-03-04 16:22:00,26.0,18.0,-100.00,ESE,110,14.0,17.0,68,0.00,,,0.00,,2013-03-04 22:22:00,
2013-03-04 16:32:00,26.0,18.0,-100.00,East,100,12.0,17.0,68,0.00,,,0.00,,2013-03-04 22:32:00,
2013-03-04 16:42:00,26.0,18.0,-100.00,ESE,110,11.0,19.0,68,0.00,,,0.00,,2013-03-04 22:42:00,
2013-03-04 16:52:00,26.0,18.0,-100.00,ESE,110,12.0,16.0,69,0.00,,,0.00,,2013-03-04 22:52:00,
2013-03-04 17:01:00,26.0,18.0,-100.00,East,100,11.0,15.0,69,0.00,,,0.00,,2013-03-04 23:01:00,
2013-03-04 17:11:00,26.0,18.0,-100.00,ESE,105,9.0,14.0,70,0.00,,,0.00,,2013-03-04 23:11:00,
2013-03-04 17:22:00,25.0,18.0,-100.00,ESE,105,14.0,17.0,70,0.00,,,0.00,,2013-03-04 23:22:00,
2013-03-04 17:32:00,25.0,18.0,-100.00,ESE,110,13.0,17.0,71,0.00,,,0.00,,2013-03-04 23:32:00,
2013-03-04 17:42:00,25.0,18.0,-100.00,ESE,105,11.0,16.0,72,0.00,,,0.00,,2013-03-04 23:42:00,
2013-03-04 17:52:00,25.0,18.0,-100.00,East,100,9.0,15.0,74,0.00,,,0.00,,2013-03-04 23:52:00,
2013-03-04 18:02:00,25.0,19.0,-100.00,ESE,105,10.0,14.0,76,0.00,,,0.00,,2013-03-05 00:02:00,
2013-03-04 18:11:00,25.0,19.0,-100.00,East,95,10.0,14.0,78,0.00,,,0.00,,2013-03-05 00:11:00,
2013-03-04 18:21:00,25.0,19.0,-100.00,East,95,10.0,12.0,81,0.00,,,0.00,,2013-03-05 00:21:00,
2013-03-04 18:32:00,24.0,21.0,-100.00,East,100,9.0,13.0,84,0.00,,,0.00,,2013-03-05 00:32:00,
2013-03-04 18:42:00,24.0,21.0,-100.00,East,90,11.0,14.0,88,0.00,,,0.00,,2013-03-05 00:42:00,
2013-03-04 18:51:00,24.0,21.0,-100.00,East,95,10.0,13.0,91,0.00,,,0.00,,2013-03-05 00:51:00,
2013-03-04 19:01:00,24.0,23.0,-100.00,East,90,10.0,14.0,93,0.00,,,0.00,,2013-03-05 01:01:00,
2013-03-04 19:12:00,24.0,23.0,-100.00,East,90,9.0,12.0,93,0.00,,,0.00,,2013-03-05 01:12:00,
2013-03-04 19:21:00,24.0,23.0,-100.00,East,95,10.0,13.0,95,0.00,,,0.00,,2013-03-05 01:21:00,
2013-03-04 19:32:00,24.0,23.0,-100.00,East,95,6.0,11.0,95,0.00,,,0.00,,2013-03-05 01:32:00,
2013-03-04 19:41:00,24.0,23.0,-100.00,East,95,7.0,9.0,96,0.00,,,0.00,,2013-03-05 01:41:00,
2013-03-04 19:52:00,24.0,23.0,-100.00,East,100,6.0,9.0,97,0.00,,,0.00,,2013-03-05 01:52:00,
2013-03-04 20:01:00,24.0,23.0,-100.00,East,95,7.0,9.0,97,0.00,,,0.00,,2013-03-05 02:01:00,
2013-03-04 20:11:00,24.0,23.0,-100.00,ESE,105,6.0,8.0,98,0.00,,,0.00,,2013-03-05 02:11:00,
2013-03-04 20:21:00,24.0,23.0,-100.00,ESE,105,5.0,7.0,99,0.00,,,0.00,,2013-03-05 02:21:00,
2013-03-04 20:32:00,24.0,23.0,-100.00,East,100,5.0,7.0,99,0.00,,,0.00,,2013-03-05 02:32:00,
2013-03-04 20:42:00,24.0,23.0,-100.00,East,90,5.0,7.0,99,0.00,,,0.00,,2013-03-05 02:42:00,
2013-03-04 20:52:00,24.0,23.0,-100.00,East,90,5.0,7.0,99,0.00,,,0.01,,2013-03-05 02:52:00,
2013-03-04 21:02:00,24.0,23.0,-100.00,East,85,6.0,7.0,99,0.00,,,0.01,,2013-03-05 03:02:00,
2013-03-04 21:12:00,24.0,23.0,-100.00,East,80,6.0,7.0,99,0.00,,,0.01,,2013-03-05 03:12:00,
2013-03-04 21:22:00,23.0,23.0,-100.00,East,85,7.0,9.0,99,0.00,,,0.01,,2013-03-05 03:22:00,
2013-03-04 21:32:00,23.0,23.0,-100.00,East,90,7.0,10.0,99,0.00,,,0.01,,2013-03-05 03:32:00,
2013-03-04 21:42:00,23.0,23.0,-100.00,East,95,8.0,10.0,99,0.00,,,0.01,,2013-03-05 03:42:00,
2013-03-04 21:52:00,23.0,23.0,-100.00,East,95,7.0,10.0,99,0.00,,,0.01,,2013-03-05 03:52:00,
2013-03-04 22:01:00,23.0,23.0,-100.00,East,100,7.0,9.0,99,0.00,,,0.01,,2013-03-05 04:01:00,
2013-03-04 22:11:00,24.0,23.0,-100.00,ESE,110,6.0,9.0,99,0.00,,,0.01,,2013-03-05 04:11:00,
2013-03-04 22:22:00,24.0,23.0,-100.00,ESE,110,6.0,9.0,99,0.00,,,0.01,,2013-03-05 04:22:00,
2013-03-04 22:32:00,24.0,23.0,-100.00,ESE,110,6.0,9.0,99,0.00,,,0.01,,2013-03-05 04:32:00,
2013-03-04 22:42:00,24.0,23.0,-100.00,ESE,110,6.0,9.0,99,0.00,,,0.01,,2013-03-05 04:42:00,
2013-03-04 22:52:00,24.0,23.0,-100.00,ESE,105,7.0,11.0,99,0.00,,,0.01,,2013-03-05 04:52:00,
2013-03-04 23:02:00,24.0,23.0,-100.00,ESE,105,7.0,10.0,99,0.00,,,0.01,,2013-03-05 05:02:00,
2013-03-04 23:11:00,24.0,23.0,-100.00,ESE,105,7.0,10.0,99,0.00,,,0.01,,2013-03-05 05:11:00,
2013-03-04 23:22:00,24.0,23.0,-100.00,East,100,7.0,9.0,99,0.01,,,0.01,,2013-03-05 05:22:00,
2013-03-04 23:32:00,24.0,23.0,-100.00,East,95,9.0,12.0,99,0.00,,,0.01,,2013-03-05 05:32:00,
2013-03-04 23:42:00,24.0,23.0,-100.00,ESE,105,9.0,11.0,99,0.01,,,0.01,,2013-03-05 05:42:00,
2013-03-04 23:52:00,24.0,23.0,-100.00,ESE,105,9.0,11.0,99,0.00,,,0.01,,2013-03-05 05:52:00,